Regional Weather Roundup
Issued by NWS San Diego, CA

Home | Current Version | Previous Version | Text Only | Print | Product List | Glossary On
Versions: 1 2 3 4 5 6 7 8 9 10 11 12 13 14 15 16 17 18 19 20 21 22 23 24 25 26 27 28 29 30 31 32 33 34 35 36 37 38 39 40 41 42 43 44 45 46 47 48 49 50
000
ASUS46 KSGX 180411
RWRSGX

SAN DIEGO HOURLY WEATHER ROUNDUP
NATIONAL WEATHER SERVICE SAN DIEGO CA
900 PM PDT TUE OCT 17 2017

NOTE: "FAIR" INDICATES FEW OR NO CLOUDS BELOW 12,000 FEET WITH NO
SIGNIFICANT WEATHER AND/OR OBSTRUCTIONS TO VISIBILITY.

CAZ042-043-060-061-PZZ750-775-180500-

GREATER SAN DIEGO AREA

CITY           SKY/WX    TMP DP  RH WIND       PRES   REMARKS
SAN DIEGO AP   PTCLDY    74  55  51 CALM      29.95S
NATIONAL CITY    N/A     73  64  73 CALM      29.96S
CHULA VISTA      N/A     70  65  82 CALM      29.86S
IMPERIAL BEACH PTCLDY    69  62  78 NE3       29.95R
BROWN FIELD    CLEAR     70  62  76 CALM      29.95F
MIRAMAR MCAS   PTCLDY    71  52  50 E3        29.95R
MONTGOMERY FLD CLEAR     75  48  38 CALM      29.95S
GILLESPIE FLD  CLEAR     73  54  49 CALM      29.96S

$$

NORTH SAN DIEGO COUNTY

CITY           SKY/WX    TMP DP  RH WIND       PRES   REMARKS
CAMP PENDLETON PTCLDY    65  57  75 CALM      29.94R
OCEANSIDE AP   CLEAR     65  60  84 CALM      29.93R
OCEANSIDE HBR    N/A     67  64  88 CALM      29.96R
VISTA            N/A     67  55  64 CALM      29.92R
CARLSBAD       CLEAR     72  60  66 CALM      29.94R
DEL MAR          N/A     69  55  61 CALM      29.95S
LA JOLLA SCRIP   N/A     73  53  49 CALM      29.93S
FALLBROOK        N/A     71  50  46 CALM      29.95S
ESCONDIDO        N/A     74  55  51 CALM      29.96R
SAN MARCOS       N/A     74  54  48 CALM      29.95S
POWAY            N/A     69  54  59 CALM      29.95S

$$

EAST SAN DIEGO COUNTY

CITY           SKY/WX    TMP DP  RH WIND       PRES   REMARKS
RAMONA         CLEAR     63  43  48 CALM      30.00R
SANTEE LAKES     N/A     69  53  57 CALM      29.93S
LA MESA          N/A     73  58  58 CALM      29.86S
JAMUL            N/A     69  55  60 CALM      29.94S
DESCANSO N       N/A     63  33  32 NE5       29.91S
CAMPO            N/A     63  27  25 NE7       30.03S

$$

ORANGE COUNTY AND THE LOS ANGELES BASIN

CITY           SKY/WX    TMP DP  RH WIND       PRES   REMARKS
JOHN WAYNE AP  PTCLDY    71  61  70 S5        29.91S
LAGUNA BEACH     N/A     68  55  63 CALM      29.87S
LAKE FOREST FR   N/A     78  37  22 CALM      29.79S
HUNTINGTON BCH   N/A     67  62  85 CALM      29.92S
LOS ALAMITOS   PTCLDY    70  59  68 CALM      29.91S
FULLERTON      CLEAR     76  57  51 CALM      29.91R
LONG BEACH     CLEAR     75  56  51 SE3       29.91S
L.A. AP        PTCLDY    73  57  57 S5        29.91S
L.A. DOWNTOWN  CLEAR     76  54  46 CALM      29.90S

$$

THE INLAND EMPIRE

CITY           SKY/WX    TMP DP  RH WIND       PRES   REMARKS
CHINO          CLEAR     73  42  32 N7        29.95R
ONTARIO        MOCLDY    80  28  15 CALM      29.95S
SAN BERNARDINO PTCLDY    79  39  24 CALM      29.97S
RIVERSIDE AP   CLEAR     78  43  28 CALM      29.95R
MORENO VALLEY    N/A     76  42  29 CALM      28.10F
MARCH ARB      CLEAR     67  37  32 CALM      29.98S
HORSETHIEF CYN   N/A     77  37  24 CALM      29.93R
PERRIS           N/A     79  41  26 CALM        N/A
HEMET EAST       N/A     74  27  17 CALM      30.00S
FRENCH VALLEY  FAIR      73  39  29 CALM      30.00R
TEMECULA         N/A     74  45  34 CALM      30.02R

$$

SAN BERNARDINO AND RIVERSIDE COUNTY MOUNTAINS

CITY           SKY/WX    TMP DP  RH WIND       PRES   REMARKS
BIG BEAR AP    CLEAR     48  25  40 CALM      30.31S

$$

SOUTHERN DESERT INCLUDING THE COACHELLA VALLEY

CITY           SKY/WX    TMP DP  RH WIND       PRES   REMARKS
PALM SPRINGS   CLEAR     81  30  15 CALM      29.91R
THOUSAND PALMS   N/A     80  29  15 CALM      29.86R
PALM DESERT      N/A     78  45  30 CALM      31.55S
THERMAL        CLEAR     71  45  39 NW3       29.85R
BLYTHE         CLEAR     77  26  15 NW3       29.88S
IMPERIAL AP    PTCLDY    80  36  20 CALM      29.85S
EL CENTRO NAS  MOCLDY    75  29  18 SW7       29.87S
YUMA AZ        MOCLDY    81  34  18 W3        29.87R
MEXICALI       MOCLDY    79  21  11 CALM      29.87

$$

UPPER DESERT

CITY           SKY/WX    TMP DP  RH WIND       PRES   REMARKS
VICTORVILLE AP CLEAR     72  18  13 W7        30.08R
HESPERIA         N/A     75  27  17 CALM      30.09R
PALMDALE       CLEAR     75  14  10 NW8       30.07R
LANCASTER      CLEAR     73  19  13 W13       30.05R
EDWARDS AFB    MOCLDY    76  13   9 W10       30.02R
DAGGETT        CLEAR     77  27  15 W9        29.99R
29 PALMS N     PTCLDY    75   7   7 CALM      30.06R
NEEDLES        CLEAR     82  10   6 W7        29.92R

$$

REGIONAL REPORTS

CITY           SKY/WX    TMP DP  RH WIND       PRES   REMARKS
SANTA BARBARA  PTCLDY    72  43  35 SW5       29.88S
SANDBERG       CLEAR     68  22  17 N15G25    30.19S
LAS VEGAS NV   MOCLDY    74  20  13 S6        30.00R
PHOENIX AZ     MOCLDY    85  49  28 SW5       29.90R
TIJUANA        PTCLDY    70  64  83 MISG      29.98
ENSENADA NW      N/A     69  32  25 CALM      29.92R

$$

OFFSHORE ISLANDS

CITY           SKY/WX    TMP DP  RH WIND       PRES   REMARKS
CATALINA ARPT  CLEAR     85  25  11 W9        30.00S
SAN NICOLAS IS PTCLDY    73  21  14 W24       29.95S

$$

MARINE AND OFFSHORE BUOY REPORTS

STATION/POSITION SKY/WX   TEMP    WIND        PRES    VSBY  SWELL
                          AIR SEA DIR/SP/G                  HT/PER/DIR
                          (F)     (DEG/KT/KT) (MB)    (MI)  (FT/S/D)
TANNER BANKS               68 66  300/ 16/ 19 1014.1R         5/190/17
S CLEMENTE BASIN           71 70  300/  4/  6 1013.7R         5/230/17
SAN NICOLAS IS.               63                N/A           3/200/17
SO. S. ROSA ISLA           66 64  300/ 19/ 23 1013.6S         5/170/17
W. S. BARBARA CH           66 64  300/ 21/ 27 1013.4
M. S. BARBARA CH           72 67  310/  2/  4 1012.8S         3/250/ 5
S. MONICA BASIN               69  190/  4/  6 1012.1R         3/180/17
S PEDRO CHANNEL               69                N/A           2/170/18
CMP PENDLETON NS              68                N/A           3/220/18
OCEANSIDE OFFSHR              71                N/A           3/200/18
TORREY PINES OTR              71                N/A           3/190/18
SAN DIEGO BAY                 74              1014.4R
POINT LOMA SOUTH              70                N/A           3/190/18

$$





USA.gov is the U.S. government's official web portal to all federal, state and local government web resources and services.